Simultaneous Nadir Overpasses (SNOs) Predictions

Prediction of SNOs between AQUA and GOES-15 Satellite Orbit:

Table of predicted SNOs for the next 14.0 days since TLE Epoch: 9/16/2023
Index Date Time (AQUA) AQUA Lat,Lon GOES-15 Lat,Lon Distance(km) Time Diff (sec)
1 09/16/2023 06:05:39 0.53, 116.96 -0.36, 112.68 486.12 80
2 09/16/2023 18:26:20 0.38, 111.92 0.35, 112.17 27.97 80
3 09/19/2023 06:32:45 -0.14, 110.32 -0.34, 109.49 94.49 80
4 09/19/2023 18:53:26 1.10, 105.29 0.33, 108.97 418.13 80
5 09/21/2023 18:39:00 -0.07, 108.75 0.34, 106.87 214.79 80
6 09/22/2023 06:59:49 -0.90, 103.70 -0.32, 106.29 295.94 80
7 09/24/2023 06:45:23 0.32, 107.15 -0.32, 104.18 338.63 80
8 09/24/2023 19:06:04 0.61, 102.12 0.30, 103.65 173.06 80
9 09/26/2023 18:51:36 -0.53, 105.60 0.31, 101.53 462.13 80
10 09/27/2023 07:12:24 -0.41, 100.54 -0.29, 100.96 48.48 80
11 09/29/2023 19:18:37 0.12, 98.97 0.29, 98.28 79.01 80
